• In Russia
  • List of Countries
  • For 7 days
  • Water Temperature
  • Satellite Maps
  • Weather Map
  • Weather Widgets
  • user-avatar
    Login

    Hourly Weather Shazagay

    Today, 26 September, Wednesday

    Time Temperature Precipitation Wind Pressure Humidity
    00:00 +9°C° 0 mm 1 mps 680 mmHg 65%
    01:00 +9°C° 0 mm 1 mps 680 mmHg 66%
    02:00 +9°C° 0 mm 1 mps 680 mmHg 67%
    03:00 +8°C° 0 mm 1 mps 680 mmHg 69%
    04:00 +8°C° 0 mm 1 mps 680 mmHg 70%
    05:00 +9°C° 0 mm 1 mps 680 mmHg 71%
    06:00 +9°C° 0 mm 1 mps 680 mmHg 72%
    07:00 +10°C° 0 mm 1 mps 680 mmHg 71%
    08:00 +12°C° 0 mm 1 mps 680 mmHg 65%
    09:00 +14°C° 0 mm 1 mps 680 mmHg 60%
    10:00 +16°C° 0 mm 1 mps 680 mmHg 54%
    11:00 +18°C° 0 mm 1 mps 680 mmHg 52%
    12:00 +19°C° 0 mm 1 mps 680 mmHg 50%
    13:00 +19°C° 0 mm 1 mps 680 mmHg 48%
    14:00 +17°C° 0 mm 2 mps 679 mmHg 52%
    15:00 +16°C° 0 mm 3 mps 679 mmHg 57%
    16:00 +14°C° 0 mm 4 mps 679 mmHg 61%
    17:00 +12°C° 0.1 mm 4 mps 678 mmHg 68%
    18:00 +10°C° 0.1 mm 4 mps 678 mmHg 75%
    19:00 +7°C° 0.1 mm 4 mps 678 mmHg 83%
    20:00 +6°C° 0.8 mm 4 mps 678 mmHg 85%
    21:00 +5°C° 0.8 mm 4 mps 678 mmHg 87%
    22:00 +5°C° 0.8 mm 3 mps 678 mmHg 89%
    23:00 +4°C° 0.9 mm 3 mps 678 mmHg 89%

    Tomorrow, 27 September, Thursday

    Time Temperature Precipitation Wind Pressure Humidity
    00:00 +4°C° 0.9 mm 3 mps 679 mmHg 89%
    01:00 +5°C° 0.9 mm 2 mps 679 mmHg 88%
    02:00 +5°C° 0.5 mm 2 mps 679 mmHg 89%
    03:00 +4°C° 0.5 mm 3 mps 679 mmHg 89%
    04:00 +4°C° 0.5 mm 3 mps 680 mmHg 90%
    05:00 +4°C° 0.2 mm 3 mps 680 mmHg 88%
    06:00 +3°C° 0.2 mm 3 mps 680 mmHg 87%
    07:00 +3°C° 0.2 mm 4 mps 681 mmHg 86%
    08:00 +3°C° 0 mm 4 mps 681 mmHg 82%
    09:00 +3°C° 0 mm 5 mps 681 mmHg 78%
    10:00 +3°C° 0 mm 5 mps 682 mmHg 74%
    11:00 +3°C° 0 mm 5 mps 681 mmHg 70%
    12:00 +3°C° 0 mm 5 mps 681 mmHg 67%
    13:00 +3°C° 0 mm 5 mps 681 mmHg 64%
    14:00 +3°C° 0 mm 5 mps 681 mmHg 63%
    15:00 +3°C° 0 mm 5 mps 681 mmHg 62%
    16:00 +3°C° 0 mm 5 mps 681 mmHg 61%
    17:00 +3°C° 0 mm 4 mps 681 mmHg 66%
    18:00 +2°C° 0 mm 3 mps 681 mmHg 71%
    19:00 +1°C° 0 mm 2 mps 681 mmHg 76%
    20:00 +1°C° 0 mm 2 mps 680 mmHg 79%
    21:00 +1°C° 0 mm 1 mps 680 mmHg 82%
    22:00 +1°C° 0 mm 1 mps 680 mmHg 85%
    23:00 +1°C° 0 mm 1 mps 680 mmHg 85%

    Day after tomorrow, 28 September, Friday

    Time Temperature Precipitation Wind Pressure Humidity
    00:00 +1°C° 0 mm 1 mps 680 mmHg 84%
    01:00 +1°C° 0 mm 1 mps 679 mmHg 84%
    02:00 +1°C° 0.2 mm 1 mps 679 mmHg 84%
    03:00 +1°C° 0.2 mm 1 mps 679 mmHg 83%
    04:00 +1°C° 0.2 mm 1 mps 679 mmHg 83%
    05:00 +2°C° 0 mm 1 mps 679 mmHg 82%
    06:00 +2°C° 0 mm 1 mps 679 mmHg 81%
    07:00 +2°C° 0 mm 1 mps 679 mmHg 80%
    08:00 +2°C° 0.1 mm 2 mps 680 mmHg 77%
    09:00 +2°C° 0.1 mm 3 mps 680 mmHg 73%
    10:00 +3°C° 0.1 mm 3 mps 681 mmHg 69%
    11:00 +3°C° 0.1 mm 4 mps 681 mmHg 69%
    12:00 +4°C° 0.1 mm 4 mps 681 mmHg 68%
    13:00 +3°C° 0.1 mm 5 mps 681 mmHg 67%
    14:00 +3°C° 0.1 mm 5 mps 682 mmHg 67%
    15:00 +3°C° 0.1 mm 5 mps 682 mmHg 68%
    16:00 +3°C° 0.1 mm 5 mps 683 mmHg 68%
    17:00 +1°C° 0 mm 4 mps 683 mmHg 73%
    18:00 +1°C° 0 mm 3 mps 683 mmHg 79%
    19:00 -1°C° 0 mm 2 mps 683 mmHg 84%
    20:00 +1°C° 0 mm 1 mps 684 mmHg 85%
    21:00 +1°C° 0 mm 1 mps 684 mmHg 86%
    22:00 0°C° 0 mm 1 mps 684 mmHg 87%
    23:00 +1°C° 0 mm 1 mps 684 mmHg 86%

    29 September, Saturday

    Time Temperature Precipitation Wind Pressure Humidity
    00:00 +1°C° 0 mm 1 mps 685 mmHg 86%
    01:00 +1°C° 0 mm 1 mps 685 mmHg 85%
    02:00 +1°C° 0.2 mm 1 mps 685 mmHg 86%
    03:00 +1°C° 0.2 mm 1 mps 685 mmHg 86%
    04:00 +1°C° 0.2 mm 1 mps 685 mmHg 87%
    05:00 +1°C° 0.1 mm 1 mps 686 mmHg 85%
    06:00 +2°C° 0.1 mm 1 mps 686 mmHg 84%
    07:00 +2°C° 0.1 mm 1 mps 687 mmHg 83%
    08:00 +3°C° 0 mm 1 mps 687 mmHg 79%
    09:00 +4°C° 0 mm 1 mps 687 mmHg 75%
    10:00 +5°C° 0 mm 1 mps 687 mmHg 71%
    11:00 +6°C° 0 mm 1 mps 687 mmHg 70%
    12:00 +7°C° 0 mm 1 mps 687 mmHg 68%
    13:00 +8°C° 0 mm 1 mps 687 mmHg 66%
    14:00 +8°C° 0 mm 1 mps 687 mmHg 68%
    15:00 +8°C° 0 mm 1 mps 687 mmHg 69%
    16:00 +7°C° 0 mm 0 mps 687 mmHg 70%
    17:00 +6°C° 0 mm 1 mps 687 mmHg 76%
    18:00 +5°C° 0 mm 1 mps 687 mmHg 82%
    19:00 +3°C° 0 mm 1 mps 687 mmHg 88%
    20:00 +3°C° 0 mm 1 mps 687 mmHg 89%
    21:00 +2°C° 0 mm 1 mps 688 mmHg 90%
    22:00 +2°C° 0 mm 1 mps 688 mmHg 90%
    23:00 +1°C° 0 mm 1 mps 688 mmHg 91%

    30 September, Sunday

    Time Temperature Precipitation Wind Pressure Humidity
    00:00 +1°C° 0 mm 1 mps 688 mmHg 91%
    01:00 +1°C° 0 mm 1 mps 688 mmHg 91%
    02:00 +1°C° 0 mm 1 mps 688 mmHg 91%
    03:00 0°C° 0 mm 1 mps 688 mmHg 91%
    04:00 0°C° 0 mm 1 mps 688 mmHg 91%
    05:00 +1°C° 0 mm 1 mps 688 mmHg 89%
    06:00 +1°C° 0 mm 1 mps 688 mmHg 86%
    07:00 +2°C° 0 mm 1 mps 688 mmHg 83%
    08:00 +4°C° 0 mm 1 mps 688 mmHg 76%
    09:00 +6°C° 0 mm 1 mps 688 mmHg 68%
    10:00 +8°C° 0 mm 2 mps 688 mmHg 61%
    11:00 +9°C° 0 mm 2 mps 688 mmHg 58%
    12:00 +10°C° 0 mm 2 mps 688 mmHg 55%
    13:00 +12°C° 0 mm 2 mps 688 mmHg 52%
    14:00 +12°C° 0 mm 2 mps 687 mmHg 53%
    15:00 +12°C° 0 mm 1 mps 687 mmHg 55%
    16:00 +11°C° 0 mm 1 mps 687 mmHg 57%
    17:00 +9°C° 0 mm 1 mps 687 mmHg 63%
    18:00 +7°C° 0 mm 1 mps 687 mmHg 69%
    19:00 +4°C° 0 mm 0 mps 687 mmHg 75%
    20:00 +5°C° 0 mm 1 mps 687 mmHg 76%
    21:00 +4°C° 0 mm 1 mps 687 mmHg 77%
    22:00 +4°C° 0 mm 1 mps 687 mmHg 78%
    23:00 +4°C° 0 mm 1 mps 687 mmHg 79%

    1 October, Monday

    Time Temperature Precipitation Wind Pressure Humidity
    00:00 +3°C° 0 mm 1 mps 687 mmHg 80%
    01:00 +3°C° 0 mm 1 mps 687 mmHg 81%
    02:00 +3°C° 0 mm 1 mps 687 mmHg 82%
    03:00 +3°C° 0 mm 1 mps 687 mmHg 82%
    04:00 +2°C° 0 mm 1 mps 687 mmHg 83%
    05:00 +3°C° 0 mm 1 mps 687 mmHg 81%
    06:00 +3°C° 0 mm 1 mps 687 mmHg 80%
    07:00 +4°C° 0 mm 1 mps 687 mmHg 78%
    08:00 +6°C° 0 mm 1 mps 687 mmHg 71%
    09:00 +8°C° 0 mm 2 mps 687 mmHg 63%
    10:00 +10°C° 0 mm 2 mps 687 mmHg 56%
    11:00 +12°C° 0 mm 2 mps 686 mmHg 54%
    12:00 +13°C° 0 mm 2 mps 686 mmHg 52%
    13:00 +14°C° 0 mm 2 mps 686 mmHg 50%
    14:00 +14°C° 0 mm 2 mps 685 mmHg 52%
    15:00 +14°C° 0 mm 1 mps 685 mmHg 54%
    16:00 +14°C° 0 mm 1 mps 685 mmHg 56%
    17:00 +12°C° 0 mm 1 mps 685 mmHg 62%
    18:00 +10°C° 0 mm 1 mps 684 mmHg 68%
    19:00 +8°C° 0 mm 1 mps 684 mmHg 74%
    20:00 +7°C° 0 mm 1 mps 684 mmHg 76%
    21:00 +7°C° 0 mm 1 mps 684 mmHg 78%
    22:00 +5°C° 0 mm 2 mps 684 mmHg 80%
    23:00 +5°C° 0 mm 2 mps 683 mmHg 81%
    Show more